| time (UTC) | temp F | wind direction | speed MPH | gust MPH | rain 1hr in | rain 24hr in | rain mn in | humidity % | barometer mb |
| 20260507205016 | 75 | 45 | 2.0 | 5.0 | 0.00 | 0.00 | 0.05 | 42 | 1016.1 |
| 20260507204532 | 75 | 44 | 4.0 | 7.0 | 0.00 | 0.00 | 0.05 | 42 | 1016.1 |
| 20260507204029 | 75 | 50 | 4.0 | 6.0 | 0.00 | 0.00 | 0.05 | 43 | 1016.0 |
| 20260507203526 | 74 | 34 | 3.0 | 8.0 | 0.00 | 0.00 | 0.05 | 43 | 1016.0 |
| 20260507203023 | 74 | 24 | 3.0 | 6.0 | 0.00 | 0.00 | 0.05 | 43 | 1016.0 |
| 20260507202520 | 74 | 54 | 4.0 | 7.0 | 0.00 | 0.00 | 0.05 | 42 | 1016.1 |
| 20260507202017 | 75 | 49 | 3.0 | 6.0 | 0.00 | 0.00 | 0.05 | 42 | 1016.3 |
| 20260507201534 | 75 | 52 | 3.0 | 6.0 | 0.00 | 0.00 | 0.05 | 42 | 1016.4 |
| 20260507201051 | 75 | 353 | 3.0 | 6.0 | 0.00 | 0.00 | 0.05 | 42 | 1016.4 |
| 20260507200528 | 74 | 56 | 4.0 | 8.0 | 0.00 | 0.00 | 0.05 | 42 | 1016.4 |
| 20260507200023 | 75 | 38 | 5.0 | 9.0 | 0.00 | 0.00 | 0.05 | 42 | 1016.5 |
| 20260507195521 | 74 | 18 | 4.0 | 8.0 | 0.00 | 0.00 | 0.05 | 42 | 1016.7 |
| 20260507195018 | 73 | 48 | 5.0 | 11.0 | 0.00 | 0.00 | 0.05 | 42 | 1016.6 |
| 20260507194534 | 73 | 24 | 5.0 | 8.0 | 0.00 | 0.00 | 0.05 | 43 | 1016.7 |
| 20260507194031 | 73 | 45 | 5.0 | 9.0 | 0.00 | 0.00 | 0.05 | 43 | 1016.9 |
| 20260507193547 | 73 | 41 | 5.0 | 9.0 | 0.00 | 0.00 | 0.05 | 42 | 1016.9 |
| 20260507193104 | 73 | 28 | 4.0 | 11.0 | 0.00 | 0.00 | 0.05 | 43 | 1017.1 |
| 20260507192522 | 73 | 19 | 4.0 | 10.0 | 0.00 | 0.00 | 0.05 | 42 | 1017.2 |
| 20260507192018 | 73 | 12 | 4.0 | 9.0 | 0.00 | 0.00 | 0.05 | 43 | 1017.3 |
| 20260507191515 | 73 | 27 | 3.0 | 9.0 | 0.00 | 0.00 | 0.05 | 43 | 1017.3 |
| 20260507191033 | 72 | 28 | 6.0 | 13.0 | 0.00 | 0.00 | 0.05 | 43 | 1017.2 |
| 20260507190530 | 72 | 45 | 6.0 | 11.0 | 0.00 | 0.00 | 0.05 | 45 | 1017.3 |
| 20260507190026 | 71 | 57 | 5.0 | 11.0 | 0.00 | 0.00 | 0.05 | 45 | 1017.5 |
| 20260507185523 | 71 | 42 | 7.0 | 13.0 | 0.00 | 0.00 | 0.05 | 45 | 1017.4 |
| 20260507185020 | 71 | 67 | 6.0 | 11.0 | 0.00 | 0.00 | 0.05 | 45 | 1017.4 |
| 20260507184517 | 72 | 74 | 6.0 | 9.0 | 0.00 | 0.00 | 0.05 | 45 | 1017.5 |
| 20260507184034 | 71 | 26 | 5.0 | 9.0 | 0.00 | 0.00 | 0.05 | 46 | 1017.5 |
| 20260507183531 | 71 | 42 | 6.0 | 9.0 | 0.00 | 0.00 | 0.05 | 47 | 1017.5 |
| 20260507183028 | 71 | 58 | 6.0 | 11.0 | 0.00 | 0.00 | 0.05 | 46 | 1017.6 |
| 20260507182524 | 71 | 39 | 5.0 | 10.0 | 0.00 | 0.00 | 0.05 | 47 | 1017.5 |
| 20260507182041 | 70 | 60 | 6.0 | 11.0 | 0.00 | 0.00 | 0.05 | 47 | 1017.8 |
| 20260507181518 | 70 | 42 | 8.0 | 15.0 | 0.00 | 0.00 | 0.05 | 46 | 1017.8 |
| 20260507181035 | 71 | 40 | 6.0 | 10.0 | 0.00 | 0.00 | 0.05 | 48 | 1017.7 |
| 20260507180532 | 70 | 39 | 5.0 | 12.0 | 0.00 | 0.00 | 0.05 | 49 | 1017.8 |
| 20260507180028 | 70 | 44 | 7.0 | 12.0 | 0.00 | 0.00 | 0.05 | 49 | 1018.0 |
| 20260507175545 | 70 | 36 | 6.0 | 10.0 | 0.00 | 0.00 | 0.05 | 49 | 1018.1 |
| 20260507175022 | 69 | 40 | 6.0 | 11.0 | 0.00 | 0.00 | 0.05 | 49 | 1018.1 |
| 20260507174519 | 69 | 44 | 6.0 | 12.0 | 0.00 | 0.00 | 0.05 | 49 | 1018.2 |
| 20260507174036 | 69 | 39 | 6.0 | 10.0 | 0.00 | 0.00 | 0.05 | 49 | 1018.4 |
| 20260507173532 | 69 | 28 | 7.0 | 12.0 | 0.00 | 0.00 | 0.05 | 49 | 1018.5 |
| 20260507173029 | 69 | 49 | 4.0 | 10.0 | 0.00 | 0.00 | 0.05 | 50 | 1018.7 |
| 20260507172607 | 68 | 50 | 5.0 | 9.0 | 0.00 | 0.00 | 0.05 | 51 | 1018.8 |
| 20260507172025 | 68 | 58 | 6.0 | 12.0 | 0.00 | 0.00 | 0.05 | 51 | 1018.8 |
| 20260507171522 | 68 | 56 | 6.0 | 14.0 | 0.00 | 0.00 | 0.05 | 50 | 1019.1 |
| 20260507171019 | 68 | 78 | 5.0 | 13.0 | 0.00 | 0.00 | 0.05 | 50 | 1019.2 |
| 20260507170535 | 68 | 64 | 6.0 | 11.0 | 0.00 | 0.00 | 0.05 | 49 | 1019.4 |
| 20260507170032 | 68 | 73 | 3.0 | 5.0 | 0.00 | 0.00 | 0.05 | 51 | 1019.5 |
| 20260507165530 | 67 | 49 | 5.0 | 9.0 | 0.00 | 0.00 | 0.05 | 52 | 1019.7 |
| 20260507165027 | 67 | 43 | 4.0 | 8.0 | 0.00 | 0.00 | 0.05 | 54 | 1019.7 |
| 20260507164523 | 67 | 33 | 5.0 | 10.0 | 0.00 | 0.00 | 0.05 | 54 | 1019.7 |
| 20260507164020 | 66 | 36 | 5.0 | 11.0 | 0.00 | 0.00 | 0.05 | 55 | 1019.7 |
| 20260507163517 | 67 | 37 | 6.0 | 11.0 | 0.00 | 0.00 | 0.05 | 55 | 1019.7 |
| 20260507163034 | 67 | 57 | 5.0 | 11.0 | 0.00 | 0.00 | 0.05 | 55 | 1019.7 |
| 20260507162551 | 66 | 50 | 5.0 | 11.0 | 0.00 | 0.00 | 0.05 | 55 | 1019.7 |
| 20260507162028 | 66 | 56 | 4.0 | 8.0 | 0.00 | 0.00 | 0.05 | 55 | 1019.6 |
| 20260507161525 | 66 | 29 | 4.0 | 8.0 | 0.00 | 0.00 | 0.05 | 56 | 1019.6 |
| 20260507161021 | 66 | 35 | 5.0 | 11.0 | 0.00 | 0.00 | 0.05 | 56 | 1019.6 |
| 20260507160538 | 65 | 37 | 5.0 | 11.0 | 0.00 | 0.00 | 0.05 | 58 | 1019.6 |
| 20260507160055 | 65 | 58 | 7.0 | 14.0 | 0.00 | 0.00 | 0.05 | 58 | 1019.7 |
| 20260507155531 | 65 | 54 | 6.0 | 11.0 | 0.00 | 0.00 | 0.05 | 57 | 1019.8 |
| 20260507155029 | 65 | 52 | 5.0 | 8.0 | 0.00 | 0.00 | 0.05 | 59 | 1019.6 |
| 20260507154525 | 65 | 60 | 5.0 | 9.0 | 0.00 | 0.00 | 0.05 | 59 | 1019.7 |
| 20260507154022 | 65 | 55 | 5.0 | 8.0 | 0.00 | 0.00 | 0.05 | 60 | 1019.9 |
| 20260507153519 | 64 | 51 | 3.0 | 6.0 | 0.00 | 0.00 | 0.05 | 62 | 1019.8 |
| 20260507153137 | 64 | 43 | 5.0 | 9.0 | 0.00 | 0.00 | 0.05 | 64 | 1020.0 |
| 20260507152533 | 63 | 58 | 6.0 | 13.0 | 0.00 | 0.00 | 0.05 | 64 | 1020.1 |
| 20260507152029 | 63 | 40 | 6.0 | 10.0 | 0.00 | 0.00 | 0.05 | 65 | 1020.1 |
| 20260507151527 | 63 | 42 | 4.0 | 8.0 | 0.00 | 0.02 | 0.05 | 66 | 1020.1 |
| 20260507151023 | 63 | 62 | 5.0 | 10.0 | 0.00 | 0.03 | 0.05 | 65 | 1020.2 |
| 20260507150519 | 63 | 38 | 4.0 | 7.0 | 0.00 | 0.04 | 0.05 | 66 | 1020.2 |
| 20260507150017 | 62 | 46 | 5.0 | 9.0 | 0.00 | 0.04 | 0.05 | 67 | 1020.2 |
| 20260507145534 | 62 | 44 | 5.0 | 11.0 | 0.00 | 0.04 | 0.05 | 68 | 1020.2 |
| 20260507145031 | 61 | 49 | 4.0 | 7.0 | 0.00 | 0.04 | 0.05 | 69 | 1020.2 |
| 20260507144528 | 61 | 54 | 6.0 | 9.0 | 0.00 | 0.04 | 0.05 | 69 | 1020.2 |
| 20260507144025 | 61 | 53 | 5.0 | 8.0 | 0.00 | 0.04 | 0.05 | 69 | 1020.2 |
| 20260507143521 | 61 | 46 | 5.0 | 8.0 | 0.00 | 0.04 | 0.05 | 69 | 1020.2 |
| 20260507143019 | 60 | 43 | 5.0 | 9.0 | 0.00 | 0.05 | 0.05 | 70 | 1020.3 |
| 20260507142515 | 60 | 49 | 4.0 | 10.0 | 0.00 | 0.05 | 0.05 | 70 | 1020.5 |
| 20260507142053 | 60 | 41 | 4.0 | 8.0 | 0.00 | 0.05 | 0.05 | 72 | 1020.4 |
| 20260507141529 | 60 | 50 | 4.0 | 8.0 | 0.00 | 0.05 | 0.05 | 72 | 1020.4 |
| 20260507141026 | 59 | 41 | 4.0 | 9.0 | 0.00 | 0.05 | 0.05 | 73 | 1020.4 |
| 20260507140523 | 59 | 39 | 5.0 | 8.0 | 0.00 | 0.05 | 0.05 | 73 | 1020.4 |
| 20260507140020 | 58 | 52 | 4.0 | 6.0 | 0.00 | 0.05 | 0.05 | 74 | 1020.4 |
| 20260507135517 | 59 | 32 | 3.0 | 5.0 | 0.00 | 0.05 | 0.05 | 74 | 1020.5 |
| 20260507135033 | 58 | 46 | 4.0 | 7.0 | 0.00 | 0.05 | 0.05 | 75 | 1020.7 |
| 20260507134530 | 58 | 44 | 4.0 | 6.0 | 0.00 | 0.05 | 0.05 | 76 | 1020.7 |
| 20260507134027 | 57 | 51 | 5.0 | 6.0 | 0.00 | 0.05 | 0.05 | 76 | 1020.6 |
| 20260507133524 | 57 | 51 | 5.0 | 8.0 | 0.00 | 0.05 | 0.05 | 76 | 1020.5 |
| 20260507133101 | 57 | 45 | 4.0 | 7.0 | 0.00 | 0.05 | 0.05 | 76 | 1020.6 |
| 20260507132517 | 57 | 43 | 4.0 | 8.0 | 0.00 | 0.05 | 0.05 | 78 | 1020.6 |
| 20260507132035 | 56 | 46 | 3.0 | 5.0 | 0.00 | 0.05 | 0.05 | 78 | 1020.6 |
| 20260507131531 | 56 | 37 | 2.0 | 5.0 | 0.00 | 0.05 | 0.05 | 79 | 1020.6 |
| 20260507131028 | 55 | 52 | 3.0 | 5.0 | 0.00 | 0.05 | 0.05 | 82 | 1020.7 |
| 20260507130525 | 55 | 27 | 2.0 | 3.0 | 0.00 | 0.05 | 0.05 | 84 | 1020.6 |
| 20260507130021 | 54 | 42 | 2.0 | 4.0 | 0.00 | 0.05 | 0.05 | 84 | 1020.4 |
| 20260507125519 | 54 | 3 | 1.0 | 2.0 | 0.00 | 0.05 | 0.05 | 84 | 1020.6 |
| 20260507125035 | 54 | 23 | 1.0 | 2.0 | 0.00 | 0.05 | 0.05 | 84 | 1020.3 |
| 20260507124532 | 54 | 31 | 1.0 | 3.0 | 0.00 | 0.05 | 0.05 | 85 | 1020.2 |
| 20260507124029 | 54 | 22 | 2.0 | 3.0 | 0.00 | 0.05 | 0.05 | 85 | 1020.2 |
| 20260507123526 | 53 | 9 | 2.0 | 3.0 | 0.00 | 0.05 | 0.05 | 85 | 1020.1 |
| 20260507123042 | 53 | 39 | 1.0 | 3.0 | 0.00 | 0.05 | 0.05 | 86 | 1020.1 |
| 20260507122519 | 53 | 343 | 1.0 | 3.0 | 0.00 | 0.05 | 0.05 | 87 | 1020.0 |
| 20260507122016 | 53 | 19 | 2.0 | 3.0 | 0.00 | 0.05 | 0.05 | 87 | 1020.2 |
| 20260507121532 | 52 | 22 | 1.0 | 2.0 | 0.00 | 0.05 | 0.05 | 88 | 1020.3 |
| 20260507121030 | 52 | 181 | 0.0 | 2.0 | 0.00 | 0.05 | 0.05 | 88 | 1020.2 |
| 20260507120527 | 52 | 82 | 1.0 | 2.0 | 0.00 | 0.05 | 0.05 | 88 | 1020.0 |
| 20260507120024 | 52 | 117 | 0.0 | 2.0 | 0.00 | 0.05 | 0.05 | 88 | 1019.9 |
| 20260507115521 | 52 | 89 | 1.0 | 2.0 | 0.00 | 0.05 | 0.05 | 88 | 1019.9 |
| 20260507115018 | 52 | 45 | 1.0 | 3.0 | 0.00 | 0.05 | 0.05 | 88 | 1019.8 |
| 20260507114535 | 52 | 11 | 2.0 | 3.0 | 0.00 | 0.05 | 0.05 | 89 | 1019.7 |
| 20260507114031 | 51 | 44 | 3.0 | 4.0 | 0.00 | 0.05 | 0.05 | 89 | 1019.8 |
| 20260507113528 | 51 | 13 | 1.0 | 3.0 | 0.00 | 0.05 | 0.05 | 89 | 1019.6 |
| 20260507113026 | 51 | 64 | 1.0 | 3.0 | 0.00 | 0.05 | 0.05 | 89 | 1019.6 |
| 20260507112522 | 51 | 55 | 1.0 | 2.0 | 0.00 | 0.05 | 0.05 | 89 | 1019.7 |
| 20260507112039 | 51 | 23 | 2.0 | 4.0 | 0.00 | 0.05 | 0.05 | 89 | 1020.0 |
| 20260507111516 | 51 | 38 | 2.0 | 4.0 | 0.00 | 0.05 | 0.05 | 89 | 1020.0 |
| 20260507111033 | 51 | 30 | 2.0 | 4.0 | 0.00 | 0.05 | 0.05 | 89 | 1020.0 |
| 20260507110530 | 51 | 35 | 2.0 | 3.0 | 0.00 | 0.05 | 0.05 | 89 | 1019.9 |
| 20260507110027 | 52 | 29 | 2.0 | 4.0 | 0.00 | 0.05 | 0.05 | 89 | 1019.8 |
| 20260507105524 | 52 | 19 | 2.0 | 3.0 | 0.00 | 0.05 | 0.05 | 89 | 1019.7 |
| 20260507105021 | 51 | 23 | 2.0 | 3.0 | 0.00 | 0.05 | 0.05 | 90 | 1019.6 |
| 20260507104537 | 52 | 39 | 2.0 | 3.0 | 0.00 | 0.05 | 0.05 | 90 | 1019.4 |
| 20260507104034 | 52 | 26 | 2.0 | 3.0 | 0.00 | 0.05 | 0.05 | 90 | 1019.6 |
| 20260507103531 | 52 | 14 | 1.0 | 3.0 | 0.00 | 0.05 | 0.05 | 90 | 1019.3 |
| 20260507103027 | 52 | 6 | 1.0 | 2.0 | 0.00 | 0.05 | 0.05 | 89 | 1019.3 |
| 20260507102524 | 52 | 18 | 1.0 | 4.0 | 0.00 | 0.05 | 0.05 | 90 | 1019.2 |
| 20260507102021 | 52 | 6 | 1.0 | 2.0 | 0.00 | 0.05 | 0.05 | 90 | 1019.1 |
| 20260507101518 | 52 | 59 | 0.0 | 2.0 | 0.00 | 0.05 | 0.05 | 89 | 1019.0 |
| 20260507101035 | 52 | 37 | 1.0 | 2.0 | 0.00 | 0.05 | 0.05 | 89 | 1018.9 |
| 20260507100551 | 52 | 12 | 2.0 | 2.0 | 0.00 | 0.05 | 0.05 | 89 | 1018.8 |
| 20260507100028 | 52 | 24 | 2.0 | 3.0 | 0.00 | 0.05 | 0.05 | 89 | 1018.7 |
| 20260507095525 | 52 | 32 | 2.0 | 3.0 | 0.00 | 0.05 | 0.05 | 89 | 1018.7 |
| 20260507095022 | 52 | 44 | 1.0 | 3.0 | 0.00 | 0.05 | 0.05 | 89 | 1018.6 |
| 20260507094519 | 52 | 43 | 0.0 | 2.0 | 0.00 | 0.05 | 0.05 | 89 | 1018.6 |
| 20260507094016 | 52 | 51 | 2.0 | 3.0 | 0.00 | 0.05 | 0.05 | 89 | 1018.4 |
| 20260507093532 | 52 | 69 | 2.0 | 3.0 | 0.00 | 0.05 | 0.05 | 88 | 1018.4 |
| 20260507093049 | 52 | 72 | 2.0 | 3.0 | 0.00 | 0.05 | 0.05 | 88 | 1018.3 |
| 20260507092526 | 52 | 73 | 2.0 | 3.0 | 0.00 | 0.05 | 0.05 | 87 | 1018.1 |
| 20260507092023 | 52 | 65 | 2.0 | 4.0 | 0.00 | 0.05 | 0.05 | 87 | 1017.9 |
| 20260507091520 | 53 | 68 | 3.0 | 4.0 | 0.00 | 0.05 | 0.05 | 87 | 1017.9 |
| 20260507091016 | 53 | 56 | 3.0 | 5.0 | 0.00 | 0.05 | 0.05 | 86 | 1017.8 |
| 20260507090553 | 53 | 54 | 4.0 | 6.0 | 0.00 | 0.05 | 0.05 | 86 | 1017.6 |
| 20260507090030 | 53 | 52 | 4.0 | 7.0 | 0.00 | 0.05 | 0.05 | 86 | 1017.8 |
| 20260507085527 | 53 | 52 | 4.0 | 6.0 | 0.00 | 0.05 | 0.05 | 85 | 1017.8 |
| 20260507085024 | 53 | 52 | 4.0 | 6.0 | 0.00 | 0.05 | 0.05 | 85 | 1018.0 |
| 20260507084520 | 53 | 54 | 3.0 | 5.0 | 0.00 | 0.05 | 0.05 | 85 | 1018.0 |
| 20260507084037 | 53 | 56 | 3.0 | 4.0 | 0.00 | 0.05 | 0.05 | 85 | 1018.1 |
| 20260507083534 | 53 | 61 | 2.0 | 4.0 | 0.00 | 0.05 | 0.05 | 85 | 1018.1 |
| 20260507083031 | 54 | 54 | 2.0 | 4.0 | 0.00 | 0.05 | 0.05 | 84 | 1018.1 |
| 20260507082528 | 54 | 45 | 3.0 | 4.0 | 0.00 | 0.05 | 0.05 | 84 | 1018.1 |
| 20260507082024 | 54 | 53 | 3.0 | 4.0 | 0.00 | 0.05 | 0.05 | 83 | 1018.0 |
| 20260507081521 | 54 | 54 | 4.0 | 6.0 | 0.00 | 0.05 | 0.05 | 83 | 1018.1 |
| 20260507081018 | 54 | 51 | 3.0 | 4.0 | 0.00 | 0.05 | 0.05 | 83 | 1018.1 |
| 20260507080535 | 54 | 60 | 3.0 | 4.0 | 0.00 | 0.05 | 0.05 | 82 | 1018.1 |
| 20260507080032 | 54 | 58 | 3.0 | 5.0 | 0.00 | 0.05 | 0.05 | 82 | 1018.0 |
| 20260507075548 | 55 | 59 | 4.0 | 5.0 | 0.00 | 0.05 | 0.05 | 82 | 1017.9 |
| 20260507075045 | 55 | 61 | 4.0 | 5.0 | 0.00 | 0.05 | 0.05 | 82 | 1017.9 |
| 20260507074522 | 55 | 59 | 4.0 | 9.0 | 0.00 | 0.05 | 0.05 | 82 | 1017.7 |
| 20260507074019 | 55 | 49 | 4.0 | 7.0 | 0.00 | 0.05 | 0.05 | 81 | 1017.8 |
| 20260507073516 | 55 | 46 | 5.0 | 8.0 | 0.00 | 0.05 | 0.05 | 81 | 1017.7 |
| 20260507073032 | 55 | 48 | 5.0 | 8.0 | 0.00 | 0.05 | 0.05 | 81 | 1017.8 |
| 20260507072529 | 55 | 50 | 5.0 | 9.0 | 0.00 | 0.05 | 0.05 | 81 | 1017.7 |
| 20260507072026 | 55 | 49 | 5.0 | 8.0 | 0.00 | 0.05 | 0.05 | 81 | 1017.7 |
| 20260507071523 | 55 | 46 | 5.0 | 9.0 | 0.00 | 0.05 | 0.05 | 81 | 1017.6 |
| 20260507071019 | 55 | 47 | 6.0 | 9.0 | 0.00 | 0.05 | 0.05 | 81 | 1017.5 |
| 20260507070516 | 55 | 45 | 5.0 | 8.0 | 0.00 | 0.05 | 0.05 | 81 | 1017.5 |
| 20260507070033 | 55 | 43 | 5.0 | 7.0 | 0.00 | 0.05 | 0.05 | 81 | 1017.5 |
| 20260507065531 | 55 | 47 | 5.0 | 7.0 | 0.00 | 0.05 | 0.05 | 81 | 1017.5 |
| 20260507065047 | 55 | 46 | 5.0 | 6.0 | 0.00 | 0.05 | 0.05 | 81 | 1017.6 |
| 20260507064524 | 55 | 48 | 5.0 | 7.0 | 0.00 | 0.05 | 0.05 | 81 | 1017.4 |
| 20260507064020 | 55 | 55 | 5.0 | 6.0 | 0.00 | 0.05 | 0.05 | 81 | 1017.6 |
| 20260507063517 | 56 | 45 | 5.0 | 7.0 | 0.00 | 0.05 | 0.05 | 80 | 1017.5 |
| 20260507063034 | 56 | 52 | 5.0 | 6.0 | 0.00 | 0.05 | 0.05 | 80 | 1017.5 |
| 20260507062531 | 56 | 51 | 4.0 | 6.0 | 0.00 | 0.05 | 0.05 | 80 | 1017.4 |
| 20260507062028 | 56 | 52 | 3.0 | 4.0 | 0.00 | 0.05 | 0.05 | 80 | 1017.4 |
| 20260507061524 | 56 | 56 | 3.0 | 5.0 | 0.00 | 0.05 | 0.05 | 80 | 1017.5 |
| 20260507061022 | 56 | 51 | 3.0 | 4.0 | 0.00 | 0.05 | 0.05 | 80 | 1017.4 |
| 20260507060518 | 56 | 60 | 4.0 | 6.0 | 0.00 | 0.05 | 0.05 | 79 | 1017.3 |
| 20260507060035 | 56 | 49 | 4.0 | 6.0 | 0.00 | 0.05 | 0.05 | 79 | 1017.2 |
| 20260507055532 | 56 | 70 | 4.0 | 6.0 | 0.00 | 0.05 | 0.05 | 79 | 1017.3 |
| 20260507055029 | 56 | 55 | 3.0 | 4.0 | 0.00 | 0.05 | 0.05 | 78 | 1017.2 |
| 20260507054607 | 56 | 61 | 4.0 | 5.0 | 0.00 | 0.05 | 0.05 | 78 | 1017.2 |
| 20260507054022 | 57 | 64 | 4.0 | 7.0 | 0.00 | 0.05 | 0.05 | 78 | 1017.2 |
| 20260507053518 | 57 | 61 | 4.0 | 5.0 | 0.00 | 0.05 | 0.05 | 77 | 1017.2 |
| 20260507053036 | 57 | 67 | 3.0 | 5.0 | 0.00 | 0.05 | 0.05 | 77 | 1017.1 |
| 20260507052533 | 57 | 68 | 4.0 | 6.0 | 0.00 | 0.05 | 0.05 | 77 | 1017.1 |
| 20260507052030 | 57 | 58 | 4.0 | 6.0 | 0.00 | 0.05 | 0.05 | 76 | 1017.0 |
| 20260507051547 | 57 | 74 | 4.0 | 7.0 | 0.00 | 0.05 | 0.05 | 76 | 1017.1 |
| 20260507051023 | 57 | 69 | 6.0 | 9.0 | 0.00 | 0.05 | 0.05 | 75 | 1017.2 |
| 20260507050520 | 58 | 71 | 5.0 | 9.0 | 0.00 | 0.05 | 0.05 | 75 | 1017.0 |
| 20260507050017 | 58 | 67 | 6.0 | 11.0 | 0.00 | 0.05 | 0.05 | 74 | 1017.1 |
| 20260507045534 | 58 | 67 | 6.0 | 12.0 | 0.00 | 0.05 | 0.05 | 74 | 1017.2 |
| 20260507045031 | 58 | 65 | 5.0 | 11.0 | 0.00 | 0.05 | 0.05 | 74 | 1017.2 |
| 20260507044709 | 58 | 63 | 6.0 | 12.0 | 0.00 | 0.05 | 0.05 | 74 | 1017.2 |
| 20260507044025 | 58 | 63 | 5.0 | 9.0 | 0.00 | 0.05 | 0.05 | 74 | 1017.3 |
| 20260507043521 | 58 | 64 | 5.0 | 8.0 | 0.00 | 0.05 | 0.05 | 74 | 1017.2 |
| 20260507043018 | 59 | 74 | 4.0 | 6.0 | 0.00 | 0.05 | 0.05 | 73 | 1017.3 |
| 20260507042534 | 59 | 71 | 5.0 | 8.0 | 0.00 | 0.05 | 0.05 | 73 | 1017.4 |
| 20260507042032 | 59 | 65 | 6.0 | 12.0 | 0.00 | 0.05 | 0.05 | 72 | 1017.4 |
| 20260507041548 | 59 | 66 | 7.0 | 13.0 | 0.00 | 0.05 | 0.05 | 71 | 1017.4 |
| 20260507041025 | 59 | 62 | 7.0 | 13.0 | 0.00 | 0.05 | 0.05 | 71 | 1017.5 |
| 20260507040522 | 59 | 63 | 7.0 | 12.0 | 0.00 | 0.05 | 0.05 | 71 | 1017.5 |
| 20260507040019 | 59 | 61 | 8.0 | 15.0 | 0.00 | 0.05 | 0.05 | 71 | 1017.5 |
| 20260507035516 | 60 | 67 | 7.0 | 13.0 | 0.00 | 0.05 | 0.05 | 71 | 1017.4 |
| 20260507035033 | 60 | 64 | 6.0 | 14.0 | 0.00 | 0.05 | 0.05 | 72 | 1017.5 |
| 20260507034529 | 60 | 65 | 7.0 | 12.0 | 0.00 | 0.05 | 0.05 | 71 | 1017.5 |
| 20260507034026 | 60 | 68 | 7.0 | 16.0 | 0.00 | 0.05 | 0.05 | 72 | 1017.5 |
| 20260507033523 | 60 | 60 | 6.0 | 11.0 | 0.00 | 0.05 | 0.05 | 72 | 1017.4 |
| 20260507033020 | 60 | 62 | 6.0 | 11.0 | 0.00 | 0.05 | 0.05 | 71 | 1017.5 |
| 20260507032557 | 60 | 54 | 7.0 | 12.0 | 0.00 | 0.05 | 0.05 | 71 | 1017.3 |
| 20260507032034 | 60 | 44 | 10.0 | 14.0 | 0.00 | 0.05 | 0.05 | 70 | 1017.5 |
| 20260507031531 | 60 | 46 | 8.0 | 17.0 | 0.00 | 0.05 | 0.05 | 71 | 1017.4 |
| 20260507031027 | 60 | 50 | 8.0 | 13.0 | 0.00 | 0.05 | 0.05 | 70 | 1017.5 |
| 20260507030524 | 60 | 49 | 8.0 | 13.0 | 0.00 | 0.05 | 0.05 | 70 | 1017.4 |
| 20260507030021 | 60 | 50 | 9.0 | 15.0 | 0.00 | 0.05 | 0.05 | 70 | 1017.4 |
| 20260507025518 | 61 | 49 | 10.0 | 18.0 | 0.00 | 0.05 | 0.05 | 70 | 1017.2 |
| 20260507025055 | 61 | 42 | 8.0 | 14.0 | 0.00 | 0.05 | 0.05 | 71 | 1017.1 |
| 20260507024532 | 61 | 41 | 9.0 | 14.0 | 0.00 | 0.05 | 0.05 | 71 | 1017.0 |
| 20260507024109 | 61 | 44 | 9.0 | 14.0 | 0.00 | 0.05 | 0.05 | 70 | 1016.8 |
| 20260507023526 | 62 | 49 | 8.0 | 15.0 | 0.00 | 0.05 | 0.05 | 70 | 1016.8 |
| 20260507023022 | 62 | 52 | 7.0 | 13.0 | 0.00 | 0.05 | 0.05 | 71 | 1016.6 |
| 20260507022518 | 62 | 55 | 8.0 | 15.0 | 0.00 | 0.05 | 0.05 | 71 | 1016.4 |
| 20260507022016 | 62 | 52 | 7.0 | 13.0 | 0.00 | 0.05 | 0.05 | 72 | 1016.4 |
| 20260507021533 | 62 | 53 | 8.0 | 14.0 | 0.00 | 0.05 | 0.05 | 72 | 1016.4 |
| 20260507021030 | 62 | 52 | 7.0 | 14.0 | 0.00 | 0.05 | 0.05 | 72 | 1016.4 |
| 20260507020526 | 62 | 54 | 7.0 | 14.0 | 0.00 | 0.05 | 0.05 | 72 | 1016.2 |
| 20260507020023 | 62 | 55 | 7.0 | 12.0 | 0.00 | 0.05 | 0.05 | 72 | 1016.2 |
| 20260507015520 | 62 | 56 | 7.0 | 12.0 | 0.00 | 0.05 | 0.05 | 71 | 1016.0 |
| 20260507015017 | 62 | 65 | 8.0 | 13.0 | 0.00 | 0.05 | 0.05 | 71 | 1016.0 |
| 20260507014555 | 62 | 53 | 6.0 | 11.0 | 0.00 | 0.05 | 0.05 | 71 | 1015.8 |
| 20260507014031 | 62 | 67 | 6.0 | 10.0 | 0.00 | 0.05 | 0.05 | 71 | 1015.6 |
| 20260507013528 | 62 | 50 | 6.0 | 11.0 | 0.00 | 0.05 | 0.05 | 71 | 1015.5 |
| 20260507013025 | 62 | 61 | 7.0 | 12.0 | 0.00 | 0.05 | 0.05 | 71 | 1015.4 |
| 20260507012522 | 62 | 63 | 7.0 | 13.0 | 0.00 | 0.05 | 0.05 | 71 | 1015.3 |
| 20260507012019 | 62 | 58 | 7.0 | 12.0 | 0.00 | 0.05 | 0.05 | 71 | 1015.1 |
| 20260507011536 | 63 | 50 | 6.0 | 10.0 | 0.00 | 0.05 | 0.05 | 71 | 1015.1 |
| 20260507011033 | 63 | 61 | 5.0 | 9.0 | 0.00 | 0.05 | 0.05 | 71 | 1015.2 |
| 20260507010529 | 63 | 64 | 7.0 | 14.0 | 0.00 | 0.05 | 0.05 | 71 | 1014.9 |
| 20260507010026 | 63 | 60 | 6.0 | 11.0 | 0.00 | 0.05 | 0.05 | 71 | 1014.8 |
| 20260507005523 | 63 | 57 | 5.0 | 9.0 | 0.00 | 0.05 | 0.05 | 71 | 1014.8 |
| 20260507005040 | 63 | 63 | 6.0 | 11.0 | 0.00 | 0.05 | 0.05 | 71 | 1014.8 |
| 20260507004536 | 63 | 57 | 6.0 | 11.0 | 0.00 | 0.05 | 0.05 | 71 | 1014.7 |
| 20260507004033 | 63 | 56 | 7.0 | 15.0 | 0.00 | 0.05 | 0.05 | 70 | 1014.7 |
| 20260507003531 | 63 | 57 | 7.0 | 12.0 | 0.00 | 0.05 | 0.05 | 70 | 1014.7 |
| 20260507003047 | 64 | 64 | 7.0 | 13.0 | 0.00 | 0.05 | 0.05 | 69 | 1014.6 |
| 20260507002524 | 64 | 60 | 6.0 | 12.0 | 0.00 | 0.05 | 0.05 | 69 | 1014.6 |
| 20260507002021 | 64 | 57 | 7.0 | 13.0 | 0.00 | 0.05 | 0.05 | 69 | 1014.5 |
| 20260507001538 | 64 | 70 | 7.0 | 12.0 | 0.00 | 0.05 | 0.05 | 68 | 1014.6 |
| 20260507001035 | 65 | 65 | 6.0 | 13.0 | 0.00 | 0.05 | 0.05 | 68 | 1014.5 |
| 20260507000532 | 65 | 56 | 6.0 | 10.0 | 0.00 | 0.05 | 0.05 | 68 | 1014.4 |
| 20260507000048 | 65 | 62 | 8.0 | 12.0 | 0.00 | 0.05 | 0.05 | 68 | 1014.2 |
| 20260506235525 | 65 | 69 | 6.0 | 11.0 | 0.00 | 0.05 | 0.05 | 68 | 1014.2 |
| 20260506235023 | 65 | 59 | 7.0 | 15.0 | 0.00 | 0.05 | 0.05 | 68 | 1014.1 |
| 20260506234521 | 65 | 64 | 7.0 | 15.0 | 0.00 | 0.05 | 0.05 | 67 | 1014.0 |
| 20260506234017 | 66 | 45 | 6.0 | 11.0 | 0.00 | 0.05 | 0.05 | 66 | 1014.1 |
| 20260506233535 | 66 | 45 | 7.0 | 12.0 | 0.00 | 0.05 | 0.05 | 66 | 1013.9 |
| 20260506233032 | 66 | 57 | 7.0 | 15.0 | 0.00 | 0.05 | 0.05 | 65 | 1014.0 |
| 20260506232549 | 66 | 52 | 7.0 | 13.0 | 0.00 | 0.05 | 0.05 | 65 | 1013.7 |
| 20260506232046 | 66 | 52 | 7.0 | 11.0 | 0.00 | 0.05 | 0.05 | 65 | 1013.8 |
| 20260506231523 | 67 | 60 | 5.0 | 11.0 | 0.00 | 0.05 | 0.05 | 65 | 1013.7 |
| 20260506231040 | 66 | 47 | 7.0 | 14.0 | 0.00 | 0.05 | 0.05 | 64 | 1013.7 |
| 20260506230516 | 67 | 67 | 7.0 | 12.0 | 0.00 | 0.05 | 0.05 | 63 | 1013.6 |
| 20260506230033 | 68 | 59 | 5.0 | 11.0 | 0.00 | 0.05 | 0.05 | 63 | 1013.6 |
| 20260506225610 | 67 | 49 | 7.0 | 13.0 | 0.00 | 0.05 | 0.05 | 63 | 1013.9 |
| 20260506225027 | 67 | 59 | 6.0 | 12.0 | 0.00 | 0.05 | 0.05 | 63 | 1013.7 |
| 20260506224524 | 67 | 67 | 7.0 | 13.0 | 0.00 | 0.05 | 0.05 | 63 | 1013.6 |
| 20260506224021 | 68 | 57 | 6.0 | 11.0 | 0.00 | 0.05 | 0.05 | 63 | 1013.5 |
| 20260506223517 | 67 | 57 | 7.0 | 14.0 | 0.00 | 0.05 | 0.05 | 63 | 1013.5 |
| 20260506223034 | 67 | 43 | 6.0 | 11.0 | 0.00 | 0.05 | 0.05 | 64 | 1013.5 |
| 20260506222531 | 67 | 41 | 7.0 | 13.0 | 0.00 | 0.05 | 0.05 | 64 | 1013.5 |
| 20260506222028 | 67 | 33 | 6.0 | 13.0 | 0.00 | 0.05 | 0.05 | 64 | 1013.4 |
| 20260506221525 | 67 | 58 | 7.0 | 13.0 | 0.00 | 0.05 | 0.05 | 64 | 1013.4 |
| 20260506221021 | 66 | 48 | 7.0 | 12.0 | 0.00 | 0.05 | 0.05 | 65 | 1013.4 |
| 20260506220539 | 66 | 46 | 5.0 | 12.0 | 0.00 | 0.05 | 0.05 | 65 | 1013.5 |
| 20260506220015 | 66 | 49 | 6.0 | 9.0 | 0.00 | 0.05 | 0.05 | 65 | 1013.6 |
| 20260506215533 | 66 | 57 | 5.0 | 12.0 | 0.00 | 0.05 | 0.05 | 64 | 1013.8 |
| 20260506215029 | 66 | 65 | 5.0 | 11.0 | 0.00 | 0.05 | 0.05 | 65 | 1013.6 |
| 20260506214526 | 65 | 68 | 6.0 | 11.0 | 0.00 | 0.05 | 0.05 | 66 | 1013.6 |
| 20260506214023 | 65 | 64 | 5.0 | 11.0 | 0.00 | 0.05 | 0.05 | 66 | 1013.5 |
| 20260506213519 | 64 | 52 | 4.0 | 8.0 | 0.00 | 0.05 | 0.05 | 66 | 1013.7 |
| 20260506213037 | 64 | 65 | 6.0 | 12.0 | 0.00 | 0.05 | 0.05 | 67 | 1013.6 |
| 20260506212533 | 64 | 46 | 6.0 | 9.0 | 0.00 | 0.05 | 0.05 | 67 | 1013.8 |
| 20260506212030 | 63 | 45 | 6.0 | 12.0 | 0.00 | 0.05 | 0.05 | 68 | 1013.8 |
| 20260506211527 | 63 | 46 | 5.0 | 9.0 | 0.00 | 0.05 | 0.05 | 68 | 1013.8 |
| 20260506211024 | 63 | 51 | 5.0 | 8.0 | 0.00 | 0.05 | 0.05 | 69 | 1014.0 |
| 20260506210521 | 63 | 47 | 5.0 | 9.0 | 0.00 | 0.05 | 0.05 | 68 | 1014.2 |
| 20260506210058 | 63 | 53 | 4.0 | 8.0 | 0.00 | 0.05 | 0.05 | 67 | 1014.0 |
| 20260506205535 | 63 | 71 | 5.0 | 9.0 | 0.00 | 0.05 | 0.05 | 68 | 1014.0 |